| time (UTC) | temp F | wind direction | speed MPH | gust MPH | rain 1hr in | rain 24hr in | rain mn in | humidity % | barometer mb |
| 20260505012006 | 59 | 167 | 1.0 | 6.0 | 0.00 | 0.00 | 0.00 | 53 | 1008.2 |
| 20260505011523 | 59 | 145 | 1.0 | 2.0 | 0.00 | 0.00 | 0.00 | 54 | 1008.0 |
| 20260505011005 | 58 | 146 | 1.0 | 2.0 | 0.00 | 0.00 | 0.00 | 54 | 1007.9 |
| 20260505010508 | 57 | 135 | 0.0 | 2.0 | 0.00 | 0.00 | 0.00 | 57 | 1007.7 |
| 20260505010020 | 58 | 135 | 0.0 | 2.0 | 0.00 | 0.00 | 0.00 | 57 | 1007.5 |
| 20260505005507 | 58 | 135 | 0.0 | 2.0 | 0.00 | 0.00 | 0.00 | 55 | 1007.5 |
| 20260505005007 | 59 | 135 | 0.0 | 2.0 | 0.00 | 0.00 | 0.00 | 55 | 1007.5 |
| 20260505004542 | 59 | 135 | 0.0 | 2.0 | 0.00 | 0.00 | 0.00 | 56 | 1007.5 |
| 20260505004008 | 59 | 135 | 0.0 | 2.0 | 0.00 | 0.00 | 0.00 | 53 | 1007.4 |
| 20260505003509 | 59 | 135 | 0.0 | 2.0 | 0.00 | 0.00 | 0.00 | 51 | 1007.2 |
| 20260505003027 | 60 | 135 | 0.0 | 2.0 | 0.00 | 0.00 | 0.00 | 51 | 1007.2 |
| 20260505002514 | 60 | 135 | 0.0 | 2.0 | 0.00 | 0.00 | 0.00 | 51 | 1007.0 |
| 20260505002017 | 60 | 135 | 0.0 | 2.0 | 0.00 | 0.00 | 0.00 | 53 | 1007.0 |
| 20260505001514 | 61 | 135 | 0.0 | 2.0 | 0.00 | 0.00 | 0.00 | 52 | 1006.8 |
| 20260505001010 | 61 | 135 | 0.0 | 2.0 | 0.00 | 0.00 | 0.00 | 51 | 1006.8 |
| 20260505000503 | 61 | 135 | 0.0 | 2.0 | 0.00 | 0.00 | 0.00 | 50 | 1006.7 |
| 20260505000033 | 62 | 135 | 0.0 | 2.0 | 0.00 | 0.00 | 0.00 | 47 | 1006.6 |
| 20260504235508 | 62 | 135 | 0.0 | 2.0 | 0.00 | 0.00 | 0.00 | 47 | 1006.5 |
| 20260504235006 | 63 | 135 | 0.0 | 2.0 | 0.00 | 0.00 | 0.00 | 46 | 1006.4 |
| 20260504234524 | 64 | 135 | 0.0 | 2.0 | 0.00 | 0.00 | 0.00 | 43 | 1006.4 |
| 20260504234006 | 65 | 13 | 0.0 | 2.0 | 0.00 | 0.00 | 0.00 | 41 | 1006.4 |
| 20260504233508 | 65 | 13 | 0.0 | 2.0 | 0.00 | 0.00 | 0.00 | 41 | 1006.3 |
| 20260504233026 | 65 | 13 | 0.0 | 2.0 | 0.00 | 0.00 | 0.00 | 41 | 1006.4 |
| 20260504232510 | 66 | 13 | 0.0 | 2.0 | 0.00 | 0.00 | 0.00 | 40 | 1006.4 |
| 20260504232013 | 67 | 12 | 0.0 | 2.0 | 0.00 | 0.00 | 0.00 | 36 | 1006.3 |
| 20260504231531 | 68 | 12 | 0.0 | 2.0 | 0.00 | 0.00 | 0.00 | 35 | 1006.1 |
| 20260504231007 | 68 | 24 | 0.0 | 2.0 | 0.00 | 0.00 | 0.00 | 33 | 1006.1 |
| 20260504230505 | 69 | 5 | 0.0 | 5.0 | 0.00 | 0.00 | 0.00 | 33 | 1006.0 |
| 20260504230019 | 68 | 9 | 0.0 | 7.0 | 0.00 | 0.00 | 0.00 | 34 | 1006.0 |
| 20260504225507 | 69 | 30 | 0.0 | 7.0 | 0.00 | 0.00 | 0.00 | 34 | 1005.9 |
| 20260504225010 | 69 | 120 | 1.0 | 4.0 | 0.00 | 0.00 | 0.00 | 32 | 1005.9 |
| 20260504224520 | 69 | 308 | 1.0 | 6.0 | 0.00 | 0.00 | 0.00 | 35 | 1005.8 |
| 20260504224003 | 69 | 351 | 0.0 | 10.0 | 0.00 | 0.00 | 0.00 | 32 | 1005.9 |
| 20260504223503 | 69 | 286 | 0.0 | 10.0 | 0.00 | 0.00 | 0.00 | 32 | 1005.7 |
| 20260504223006 | 69 | 63 | 3.0 | 8.0 | 0.00 | 0.00 | 0.00 | 33 | 1005.7 |
| 20260504222504 | 69 | 84 | 2.0 | 12.0 | 0.00 | 0.00 | 0.00 | 32 | 1005.6 |
| 20260504222003 | 69 | 163 | 1.0 | 12.0 | 0.00 | 0.00 | 0.00 | 32 | 1005.7 |
| 20260504221510 | 69 | 34 | 1.0 | 7.0 | 0.00 | 0.00 | 0.00 | 34 | 1005.7 |
| 20260504221005 | 69 | 294 | 2.0 | 7.0 | 0.00 | 0.00 | 0.00 | 34 | 1005.7 |
| 20260504220503 | 69 | 37 | 1.0 | 7.0 | 0.00 | 0.00 | 0.00 | 32 | 1005.8 |
| 20260504220013 | 70 | 209 | 1.0 | 7.0 | 0.00 | 0.00 | 0.00 | 32 | 1005.6 |
| 20260504215502 | 70 | 194 | 1.0 | 6.0 | 0.00 | 0.00 | 0.00 | 33 | 1005.7 |
| 20260504215008 | 70 | 189 | 1.0 | 7.0 | 0.00 | 0.00 | 0.00 | 32 | 1005.6 |
| 20260504214513 | 70 | 277 | 2.0 | 7.0 | 0.00 | 0.00 | 0.00 | 31 | 1005.5 |
| 20260504214003 | 70 | 43 | 1.0 | 8.0 | 0.00 | 0.00 | 0.00 | 32 | 1005.5 |
| 20260504213503 | 70 | 132 | 1.0 | 8.0 | 0.00 | 0.00 | 0.00 | 31 | 1005.5 |
| 20260504213003 | 70 | 168 | 0.0 | 8.0 | 0.00 | 0.00 | 0.00 | 32 | 1005.4 |
| 20260504212503 | 70 | 160 | 2.0 | 8.0 | 0.00 | 0.00 | 0.00 | 32 | 1005.6 |
| 20260504212005 | 70 | 75 | 2.0 | 8.0 | 0.00 | 0.00 | 0.00 | 32 | 1005.6 |
| 20260504211508 | 70 | 61 | 1.0 | 10.0 | 0.00 | 0.00 | 0.00 | 34 | 1005.7 |
| 20260504211001 | 70 | 314 | 4.0 | 10.0 | 0.00 | 0.00 | 0.00 | 31 | 1005.7 |
| 20260504210503 | 71 | 136 | 3.0 | 12.0 | 0.00 | 0.00 | 0.00 | 30 | 1005.8 |
| 20260504210011 | 71 | 128 | 3.0 | 12.0 | 0.00 | 0.00 | 0.00 | 31 | 1005.6 |
| 20260504205506 | 72 | 128 | 3.0 | 12.0 | 0.00 | 0.00 | 0.00 | 33 | 1005.7 |
| 20260504205006 | 72 | 132 | 2.0 | 9.0 | 0.00 | 0.00 | 0.00 | 31 | 1005.7 |
| 20260504204517 | 71 | 171 | 1.0 | 9.0 | 0.00 | 0.00 | 0.00 | 31 | 1005.6 |
| 20260504204006 | 72 | 209 | 2.0 | 9.0 | 0.00 | 0.00 | 0.00 | 30 | 1005.6 |
| 20260504203505 | 72 | 47 | 1.0 | 9.0 | 0.00 | 0.00 | 0.00 | 32 | 1005.6 |
| 20260504203017 | 72 | 319 | 3.0 | 7.0 | 0.00 | 0.00 | 0.00 | 31 | 1005.6 |
| 20260504202511 | 72 | 220 | 4.0 | 9.0 | 0.00 | 0.00 | 0.00 | 30 | 1005.6 |
| 20260504202007 | 72 | 227 | 3.0 | 11.0 | 0.00 | 0.00 | 0.00 | 30 | 1005.7 |
| 20260504201506 | 72 | 333 | 1.0 | 11.0 | 0.00 | 0.00 | 0.00 | 32 | 1005.7 |
| 20260504201004 | 72 | 218 | 1.0 | 8.0 | 0.00 | 0.00 | 0.00 | 29 | 1005.7 |
| 20260504200505 | 73 | 241 | 2.0 | 15.0 | 0.00 | 0.00 | 0.00 | 31 | 1005.7 |
| 20260504200012 | 73 | 277 | 1.0 | 15.0 | 0.00 | 0.00 | 0.00 | 32 | 1005.6 |
| 20260504195504 | 72 | 65 | 2.0 | 10.0 | 0.00 | 0.00 | 0.00 | 29 | 1005.5 |
| 20260504195006 | 72 | 342 | 3.0 | 9.0 | 0.00 | 0.00 | 0.00 | 28 | 1005.8 |
| 20260504194518 | 72 | 31 | 1.0 | 8.0 | 0.00 | 0.00 | 0.00 | 32 | 1005.6 |
| 20260504194006 | 71 | 59 | 2.0 | 14.0 | 0.00 | 0.00 | 0.00 | 30 | 1005.7 |
| 20260504193509 | 71 | 212 | 4.0 | 14.0 | 0.00 | 0.00 | 0.00 | 29 | 1005.7 |
| 20260504193018 | 71 | 230 | 3.0 | 12.0 | 0.00 | 0.00 | 0.00 | 30 | 1005.7 |
| 20260504192505 | 71 | 170 | 4.0 | 12.0 | 0.00 | 0.00 | 0.00 | 29 | 1005.7 |
| 20260504192006 | 71 | 137 | 4.0 | 12.0 | 0.00 | 0.00 | 0.00 | 30 | 1005.6 |
| 20260504191520 | 71 | 130 | 3.0 | 11.0 | 0.00 | 0.00 | 0.00 | 29 | 1005.6 |
| 20260504191008 | 72 | 172 | 2.0 | 11.0 | 0.00 | 0.00 | 0.00 | 29 | 1005.6 |
| 20260504190506 | 71 | 60 | 2.0 | 11.0 | 0.00 | 0.00 | 0.00 | 30 | 1005.6 |
| 20260504190011 | 72 | 162 | 3.0 | 8.0 | 0.00 | 0.00 | 0.00 | 31 | 1005.7 |
| 20260504185504 | 72 | 321 | 2.0 | 9.0 | 0.00 | 0.00 | 0.00 | 31 | 1005.7 |
| 20260504185004 | 72 | 274 | 2.0 | 9.0 | 0.00 | 0.00 | 0.00 | 30 | 1005.7 |
| 20260504184515 | 71 | 217 | 2.0 | 8.0 | 0.00 | 0.00 | 0.00 | 29 | 1005.8 |
| 20260504184006 | 70 | 35 | 2.0 | 10.0 | 0.00 | 0.00 | 0.00 | 35 | 1005.9 |
| 20260504183506 | 70 | 277 | 2.0 | 12.0 | 0.00 | 0.00 | 0.00 | 30 | 1005.9 |
| 20260504183020 | 70 | 229 | 4.0 | 12.0 | 0.00 | 0.00 | 0.00 | 31 | 1005.8 |
| 20260504182505 | 71 | 180 | 2.0 | 9.0 | 0.00 | 0.00 | 0.00 | 31 | 1005.8 |
| 20260504182007 | 71 | 146 | 4.0 | 14.0 | 0.00 | 0.00 | 0.00 | 32 | 1005.7 |
| 20260504181522 | 71 | 227 | 2.0 | 14.0 | 0.00 | 0.00 | 0.00 | 30 | 1005.9 |
| 20260504181007 | 71 | 350 | 4.0 | 14.0 | 0.00 | 0.00 | 0.00 | 30 | 1006.1 |
| 20260504180508 | 70 | 346 | 2.0 | 14.0 | 0.00 | 0.00 | 0.00 | 30 | 1005.9 |
| 20260504180021 | 71 | 251 | 2.0 | 9.0 | 0.00 | 0.00 | 0.00 | 31 | 1006.0 |
| 20260504175512 | 70 | 133 | 3.0 | 9.0 | 0.00 | 0.00 | 0.00 | 30 | 1006.1 |
| 20260504175005 | 70 | 264 | 3.0 | 20.0 | 0.00 | 0.00 | 0.00 | 31 | 1006.1 |
| 20260504174514 | 70 | 305 | 4.0 | 20.0 | 0.00 | 0.00 | 0.00 | 30 | 1006.1 |
| 20260504174005 | 70 | 191 | 5.0 | 19.0 | 0.00 | 0.00 | 0.00 | 30 | 1006.1 |
| 20260504173506 | 70 | 221 | 3.0 | 9.0 | 0.00 | 0.00 | 0.00 | 33 | 1006.2 |
| 20260504173019 | 70 | 55 | 2.0 | 9.0 | 0.00 | 0.00 | 0.00 | 31 | 1006.4 |
| 20260504172504 | 69 | 261 | 3.0 | 13.0 | 0.00 | 0.00 | 0.00 | 30 | 1006.2 |
| 20260504172006 | 69 | 340 | 4.0 | 13.0 | 0.00 | 0.00 | 0.00 | 34 | 1006.2 |
| 20260504171524 | 69 | 136 | 2.0 | 8.0 | 0.00 | 0.00 | 0.00 | 33 | 1006.2 |
| 20260504171008 | 69 | 328 | 2.0 | 11.0 | 0.00 | 0.00 | 0.00 | 32 | 1006.4 |
| 20260504170508 | 69 | 284 | 2.0 | 11.0 | 0.00 | 0.00 | 0.00 | 33 | 1006.4 |
| 20260504151007 | 65 | 295 | 2.0 | 10.0 | 0.00 | 0.00 | 0.00 | 40 | 1007.4 |
| 20260504150511 | 65 | 347 | 4.0 | 12.0 | 0.00 | 0.00 | 0.00 | 38 | 1007.6 |
| 20260504141005 | 63 | 296 | 1.0 | 5.0 | 0.00 | 0.00 | 0.00 | 45 | 1008.2 |
| 20260504140505 | 62 | 11 | 1.0 | 9.0 | 0.00 | 0.00 | 0.00 | 44 | 1008.2 |
| 20260504130508 | 55 | 294 | 1.0 | 9.0 | 0.00 | 0.00 | 0.00 | 50 | 1009.0 |
| 20260504110506 | 42 | 169 | 0.0 | 2.0 | 0.00 | 0.00 | 0.00 | 74 | 1009.9 |
| 20260504100503 | 40 | 169 | 0.0 | 2.0 | 0.00 | 0.00 | 0.00 | 80 | 1009.6 |
| 20260504082006 | 41 | 169 | 0.0 | 2.0 | 0.00 | 0.00 | 0.00 | 75 | 1009.4 |
| 20260504081507 | 41 | 169 | 0.0 | 2.0 | 0.00 | 0.00 | 0.00 | 75 | 1009.4 |
| 20260504081004 | 41 | 169 | 0.0 | 2.0 | 0.00 | 0.00 | 0.00 | 73 | 1009.4 |
| 20260504080503 | 41 | 169 | 0.0 | 2.0 | 0.00 | 0.00 | 0.00 | 73 | 1009.4 |
| 20260504050508 | 34 | 135 | 0.0 | 2.0 | 0.00 | 0.00 | 0.00 | 84 | 1009.4 |
| 20260504050024 | 34 | 135 | 0.0 | 2.0 | 0.00 | 0.00 | 0.00 | 84 | 1009.4 |
| 20260504045505 | 34 | 135 | 0.0 | 2.0 | 0.00 | 0.00 | 0.00 | 83 | 1009.4 |
| 20260504045008 | 34 | 135 | 0.0 | 2.0 | 0.00 | 0.00 | 0.00 | 83 | 1009.4 |
| 20260504044510 | 34 | 135 | 0.0 | 2.0 | 0.00 | 0.00 | 0.00 | 83 | 1009.4 |
| 20260504044003 | 34 | 135 | 0.0 | 2.0 | 0.00 | 0.00 | 0.00 | 82 | 1009.4 |
| 20260504043503 | 35 | 135 | 0.0 | 2.0 | 0.00 | 0.00 | 0.00 | 82 | 1009.3 |
| 20260504043012 | 35 | 135 | 0.0 | 2.0 | 0.00 | 0.00 | 0.00 | 81 | 1009.3 |
| 20260504042504 | 35 | 135 | 0.0 | 2.0 | 0.00 | 0.00 | 0.00 | 81 | 1009.3 |
| 20260504042008 | 36 | 135 | 0.0 | 1.0 | 0.00 | 0.00 | 0.00 | 80 | 1009.3 |
| 20260504041520 | 36 | 135 | 0.0 | 2.0 | 0.00 | 0.00 | 0.00 | 80 | 1009.3 |
| 20260504041007 | 36 | 135 | 0.0 | 2.0 | 0.00 | 0.00 | 0.00 | 79 | 1009.3 |
| 20260504040507 | 37 | 135 | 0.0 | 1.0 | 0.00 | 0.00 | 0.00 | 79 | 1009.3 |
| 20260504040022 | 37 | 135 | 0.0 | 2.0 | 0.00 | 0.00 | 0.00 | 79 | 1009.2 |
| 20260504035510 | 37 | 135 | 0.0 | 2.0 | 0.00 | 0.00 | 0.00 | 79 | 1009.2 |
| 20260504035009 | 37 | 135 | 0.0 | 2.0 | 0.00 | 0.00 | 0.00 | 78 | 1009.2 |
| 20260504034524 | 37 | 135 | 0.0 | 2.0 | 0.00 | 0.00 | 0.00 | 77 | 1009.2 |
| 20260504034011 | 37 | 135 | 0.0 | 2.0 | 0.00 | 0.00 | 0.00 | 77 | 1009.2 |
| 20260504033508 | 37 | 135 | 0.0 | 2.0 | 0.00 | 0.00 | 0.00 | 76 | 1009.1 |
| 20260504033013 | 37 | 135 | 0.0 | 2.0 | 0.00 | 0.00 | 0.00 | 76 | 1009.1 |
| 20260504032503 | 38 | 135 | 0.0 | 2.0 | 0.00 | 0.00 | 0.00 | 75 | 1009.1 |
| 20260504032006 | 37 | 135 | 0.0 | 2.0 | 0.00 | 0.00 | 0.00 | 77 | 1009.1 |
| 20260504031518 | 37 | 135 | 0.0 | 2.0 | 0.00 | 0.00 | 0.00 | 77 | 1009.1 |
| 20260504031008 | 37 | 135 | 0.0 | 2.0 | 0.00 | 0.00 | 0.00 | 77 | 1009.0 |
| 20260504030508 | 37 | 135 | 0.0 | 1.0 | 0.00 | 0.00 | 0.00 | 76 | 1009.0 |
| 20260504030022 | 38 | 135 | 0.0 | 2.0 | 0.00 | 0.00 | 0.00 | 74 | 1009.0 |
| 20260504025508 | 39 | 135 | 0.0 | 2.0 | 0.00 | 0.00 | 0.00 | 73 | 1008.9 |
| 20260504025012 | 39 | 135 | 0.0 | 2.0 | 0.00 | 0.00 | 0.00 | 72 | 1008.9 |
| 20260504024522 | 39 | 135 | 0.0 | 2.0 | 0.00 | 0.00 | 0.00 | 72 | 1008.9 |
| 20260504024007 | 39 | 135 | 0.0 | 2.0 | 0.00 | 0.00 | 0.00 | 72 | 1008.9 |
| 20260504023507 | 39 | 135 | 0.0 | 2.0 | 0.00 | 0.00 | 0.00 | 72 | 1008.9 |
| 20260504023028 | 39 | 135 | 0.0 | 2.0 | 0.00 | 0.00 | 0.00 | 71 | 1008.9 |
| 20260504022509 | 40 | 135 | 0.0 | 2.0 | 0.00 | 0.00 | 0.00 | 71 | 1008.8 |
| 20260504022007 | 40 | 135 | 0.0 | 2.0 | 0.00 | 0.00 | 0.00 | 70 | 1008.8 |
| 20260504021517 | 40 | 135 | 0.0 | 0.0 | 0.00 | 0.00 | 0.00 | 70 | 1008.8 |
| 20260504021004 | 40 | 135 | 0.0 | 1.0 | 0.00 | 0.00 | 0.00 | 70 | 1008.8 |
| 20260504020508 | 40 | 135 | 0.0 | 2.0 | 0.00 | 0.00 | 0.00 | 70 | 1008.8 |
| 20260504020016 | 40 | 135 | 0.0 | 2.0 | 0.00 | 0.00 | 0.00 | 68 | 1008.8 |
| 20260504015508 | 41 | 135 | 0.0 | 2.0 | 0.00 | 0.00 | 0.00 | 69 | 1008.9 |
| 20260504015006 | 41 | 135 | 0.0 | 1.0 | 0.00 | 0.00 | 0.00 | 68 | 1008.8 |
| 20260504014524 | 41 | 135 | 0.0 | 2.0 | 0.00 | 0.00 | 0.00 | 69 | 1008.7 |
| 20260504014007 | 41 | 135 | 0.0 | 2.0 | 0.00 | 0.00 | 0.00 | 69 | 1008.7 |
| 20260504013507 | 41 | 135 | 0.0 | 2.0 | 0.00 | 0.00 | 0.00 | 67 | 1008.7 |
| 20260504013034 | 42 | 135 | 0.0 | 2.0 | 0.00 | 0.00 | 0.00 | 65 | 1008.7 |
| 20260504012507 | 42 | 135 | 0.0 | 2.0 | 0.00 | 0.00 | 0.00 | 64 | 1008.7 |